This is the latest recevied weather packets stored in our database for station/object WE3WEE. If no packets are shown the sender has not sent any weather packets the latest 10 day(s).
| Time | Temp. | Humidity | Pressure | Rain* | Wind** | Luminosity | Snow |
|---|---|---|---|---|---|---|---|
| 1777844210 | 14.44° C | 41% | 1010.6 hPa | 0 mm | - | - | - |
| 1777843906 | 14.44° C | 40% | 1010.6 hPa | 0 mm | - | - | - |
| 1777843603 | 14.44° C | 39% | 1010.6 hPa | 0 mm | - | - | - |
| 1777843301 | 14.44° C | 38% | 1010.6 hPa | 0 mm | - | - | - |
| 1777842998 | 14.44° C | 40% | 1011.7 hPa | 0 mm | - | - | - |
| 1777842693 | 14.44° C | 41% | 1011.7 hPa | 0 mm | - | - | - |
| 1777842390 | 13.89° C | 41% | 1011.7 hPa | 0 mm | - | - | - |
| 1777842087 | 13.89° C | 43% | 1010.6 hPa | 0 mm | - | - | - |
| 1777841783 | 13.89° C | 39% | 1010.6 hPa | 0 mm | - | - | - |
| 1777841479 | 13.89° C | 41% | 1010.6 hPa | 0 mm | - | - | - |
| 1777841176 | 13.89° C | 38% | 1011.7 hPa | 0 mm | - | - | - |
| 1777840874 | 14.44° C | 41% | 1011.7 hPa | 0 mm | - | - | - |
| 1777840570 | 14.44° C | 41% | 1011.7 hPa | 0 mm | - | - | - |
| 1777840268 | 15° C | 36% | 1011.7 hPa | 0 mm | - | - | - |
| 1777839965 | 14.44° C | 38% | 1011.7 hPa | 0 mm | - | - | - |
| 1777839663 | 13.33° C | 40% | 1011.7 hPa | 0 mm | - | - | - |
| 1777839361 | 13.33° C | 40% | 1011.7 hPa | 0 mm | - | - | - |
| 1777839058 | 13.89° C | 40% | 1011.7 hPa | 0 mm | - | - | - |
| 1777838754 | 13.89° C | 42% | 1011.7 hPa | 0 mm | - | - | - |
| 1777838451 | 13.89° C | 41% | 1011.7 hPa | 0 mm | - | - | - |
| 1777838148 | 14.44° C | 38% | 1011.7 hPa | 0 mm | - | - | - |
| 1777837844 | 15° C | 38% | 1011.7 hPa | 0 mm | - | - | - |
| 1777837542 | 15° C | 41% | 1011.7 hPa | 0 mm | - | - | - |
| 1777837241 | 14.44° C | 38% | 1011.7 hPa | 0 mm | - | - | - |
| 1777836939 | 14.44° C | 39% | 1011.7 hPa | 0 mm | - | - | - |
* Rain latest hour (hover to see other rain measurements)
** Current wind speed in m/s (hover to see current wind gust speed)